Wind_Speed
8 6 5 1 3 4 4 3 2 1 2 4 4 4 2 2 1 2 2 3 2 0 2 1 3 6 9 8 9 16 15 15 19 21 22 22 20 19 19 17 17 15 11 8 10 12 10 10 10 9 9 8 7 7 7 8 8 9 10 11 12 12 15 16 18 19 20 22 23 24 25 26 26 27 28 29 29 30 31 32 33 34 35 35 36 37
7 7 2 3 5 4 4 2 3 3 4 4 5 4 3 1 3 3 2 3 3 0 2 1 3 8 9 8 8 13 12 16 24 23 23 24 22 21 20 19 18 17 14 13 13 12 11 11 9 9 8 7 6 6 7 8 9 10 11 12 12 12 15 16 18 20 21 22 24 25 26 27 28 29 30 31 30 31 32 33 33 34 36 37 38 39
7 4 2 4 3 1 2 2 3 4 5 4 3 4 2 0 2 3 2 3 3 0 2 2 4 9 10 7 8 15 17 20 25 25 24 24 23 23 22 20 19 19 18 16 14 12 11 11 10 9 7 6 7 7 8 9 10 11 12 14 14 14 15 17 18 20 22 23 25 27 28 29 31 31 32 32 32 32 32 33 33 34 35 37 39 40
4 1 3 2 3 3 4 3 2 4 5 3 3 3 1 2 1 1 2 4 3 0 2 3 4 7 7 4 6 14 19 20 21 21 23 24 24 24 23 21 21 22 20 17 13 11 11 11 11 10 9 9 9 8 9 10 12 13 14 16 17 17 18 19 21 23 24 26 27 29 31 32 34 34 35 35 35 34 35 35 35 36 37 39 40 40
3 1 2 2 3 3 3 4 4 4 3 2 2 4 2 1 1 3 2 3 2 1 2 3 4 4 3 3 4 6 9 15 17 18 23 26 27 25 23 23 23 22 21 17 13 11 11 12 12 12 12 12 11 11 12 13 15 16 17 19 20 21 22 23 24 25 27 28 29 31 33 35 37 37 38 39 38 37 39 40 40 40 41 42 43 43
3 2 2 3 4 3 3 3 3 3 1 2 1 3 3 2 1 3 3 3 3 2 2 4 4 4 4 4 6 2 2 8 10 13 23 27 26 27 27 25 23 21 19 16 13 11 11 12 13 14 15 15 15 15 16 16 18 19 19 21 22 23 24 25 26 28 30 32 33 34 36 38 39 41 41 40 40 41 43 44 44 45 45 45 45 45
2 3 3 5 5 5 5 3 1 3 4 2 1 2 3 3 1 1 2 2 2 2 3 4 2 4 6 6 6 2 3 7 6 10 20 24 23 26 26 23 20 18 16 15 14 12 11 10 10 10 11 12 12 13 14 14 15 16 17 18 20 21 22 23 24 26 29 31 33 35 38 39 41 44 44 43 43 46 47 47 48 48 48 48 47 46
0 3 6 5 5 5 5 2 0 4 5 1 2 1 1 1 2 2 2 2 1 2 3 4 2 2 5 6 3 3 4 7 6 7 14 18 19 20 20 18 15 14 12 11 9 7 5 4 4 3 4 5 6 7 9 10 12 13 15 17 19 21 21 21 21 22 23 25 27 29 32 35 38 40 42 42 43 46 48 49 49 49 50 49 48 48
0 2 3 3 5 4 1 0 3 4 3 1 2 2 1 2 3 3 4 3 1 2 3 4 2 1 5 5 3 4 3 6 8 7 9 12 12 11 11 9 7 6 4 2 2 3 2 1 0 1 2 4 5 7 8 10 13 15 17 20 21 22 22 21 20 20 21 21 23 24 26 29 31 32 34 36 37 39 42 43 44 45 45 46 46 46
0 1 1 2 4 1 2 2 3 3 2 2 4 4 3 4 4 3 4 3 2 3 4 4 2 0 5 6 2 2 1 5 7 7 7 8 6 5 6 5 5 6 7 7 7 6 4 2 1 2 2 3 6 9 11 13 16 17 19 21 22 22 22 21 20 21 21 21 22 24 25 27 29 29 30 32 33 34 35 37 38 38 38 39 40 41
1 1 2 1 2 3 3 1 1 2 3 5 4 3 4 4 4 3 2 3 4 3 5 4 1 1 3 6 3 3 4 5 5 3 6 7 7 7 8 10 10 10 9 8 7 5 3 1 0 1 2 5 8 12 14 16 17 18 19 20 21 22 22 22 22 22 23 23 25 26 26 28 29 29 29 31 32 32 32 33 34 34 34 35 36 36
2 1 1 1 3 2 3 2 2 3 4 5 3 2 2 3 4 3 4 3 3 3 5 3 2 1 3 6 4 4 5 4 5 5 6 7 9 12 11 10 9 9 8 7 5 4 4 3 3 4 6 9 11 14 15 16 18 18 19 21 21 22 22 23 23 24 25 26 27 29 30 31 32 31 31 31 32 31 30 31 31 32 32 33 33 34
2 1 2 0 3 2 3 2 2 2 3 3 2 3 3 3 4 2 3 1 2 4 3 2 3 2 6 8 8 10 10 8 9 9 9 9 10 11 9 7 9 10 8 7 6 5 5 6 6 7 10 12 13 15 16 17 18 19 20 21 22 22 22 22 23 24 25 26 27 29 31 32 33 33 32 32 32 31 30 30 30 30 31 31 32 32
2 4 2 1 2 2 4 3 1 1 1 3 3 3 3 2 3 2 3 2 4 4 2 2 2 3 5 6 9 12 9 7 11 14 13 13 11 8 5 9 11 10 8 6 6 6 6 6 8 10 12 14 15 16 17 17 18 19 20 21 21 21 21 21 22 23 25 26 28 29 31 32 32 32 32 32 33 33 33 32 32 32 32 32 32 32
1 4 2 2 1 1 2 2 3 3 3 2 3 3 3 4 2 4 4 3 4 4 3 3 2 3 3 3 6 9 10 11 11 13 12 10 9 7 6 10 11 8 7 6 6 7 7 8 10 12 14 15 16 17 17 18 18 19 20 21 21 21 22 23 25 27 29 31 32 32 32 32 32 33 33 34 34 34 34 34 33 34 33 32 32 32
1 4 4 2 1 2 1 2 2 4 2 1 2 3 2 4 4 2 3 5 2 2 3 2 3 5 4 5 7 7 9 11 10 11 11 9 7 8 9 10 9 7 6 7 8 8 8 10 12 13 14 15 16 16 17 17 18 19 20 20 21 22 24 27 30 33 35 35 35 33 33 33 33 33 34 34 34 34 33 33 32 32 31 30 31 31
1 4 4 3 2 1 1 1 1 2 1 1 1 2 3 3 6 5 1 0 3 0 3 1 4 6 4 6 7 5 1 2 2 2 7 11 10 10 11 9 7 6 7 8 8 8 9 11 13 14 14 15 15 15 15 16 18 19 20 21 23 26 29 32 35 36 36 34 33 31 30 29 29 29 30 30 31 30 30 29 29 29 29 29 29 29
2 3 4 1 0 1 1 1 3 3 2 1 1 3 2 2 4 4 0 3 3 2 4 1 4 6 4 4 6 6 1 3 3 2 2 7 11 12 10 7 6 7 7 7 7 9 11 12 14 14 14 14 14 14 15 16 18 19 21 24 27 30 33 35 34 33 32 30 28 26 25 24 24 24 25 25 26 27 27 27 26 26 26 27 27 27
3 2 5 1 2 2 1 1 2 4 3 1 3 3 2 2 1 1 1 1 1 3 4 3 5 6 5 5 4 4 6 6 5 2 2 7 13 12 7 6 6 6 6 7 8 11 13 13 14 14 14 14 14 15 16 18 19 21 25 28 30 32 33 32 31 28 26 24 23 22 21 21 21 21 22 23 23 24 25 25 24 23 23 24 25 25
2 0 4 3 2 1 2 1 3 1 3 3 2 1 2 2 4 1 2 3 2 2 3 4 4 5 7 6 6 9 10 8 7 5 6 11 13 8 4 4 5 6 7 9 11 13 14 14 14 14 14 14 15 17 18 20 22 24 28 30 31 32 31 29 26 24 22 21 20 20 19 19 19 19 20 21 21 22 23 23 22 21 20 20 21 21
2 2 3 4 3 1 1 3 5 5 3 2 1 1 1 1 1 1 0 2 3 2 3 2 4 8 7 5 8 10 9 9 9 6 8 12 10 4 3 4 6 8 10 12 14 15 15 15 15 14 15 16 17 18 20 21 24 26 29 30 30 30 28 25 23 21 20 19 19 19 19 19 19 19 20 20 20 21 20 20 20 19 19 19 18 17
1 3 3 3 2 3 5 4 4 5 5 5 4 4 4 3 3 1 3 2 2 3 4 3 5 12 6 6 8 10 9 10 11 9 10 12 7 3 4 6 9 11 13 14 15 15 15 15 15 16 16 17 18 20 21 23 26 28 29 29 28 27 25 23 20 19 18 18 18 18 18 19 19 19 19 19 19 19 19 18 18 17 17 16 14 12
2 3 1 4 5 5 4 2 1 3 4 4 2 3 4 4 5 4 4 4 1 2 2 4 3 11 4 6 7 8 8 10 11 13 13 10 5 4 6 9 11 13 14 15 16 16 16 16 16 17 17 18 19 20 22 25 27 27 27 27 26 24 22 20 19 18 17 17 17 17 17 17 17 18 19 19 18 17 17 16 15 13 12 10 9 8
2 2 1 5 5 3 3 3 2 1 3 2 2 2 4 3 4 5 5 3 2 4 3 3 4 10 4 1 3 4 5 6 11 15 12 6 5 6 9 11 13 14 15 16 17 16 17 17 17 17 17 18 19 21 23 25 26 26 26 24 23 21 19 18 17 16 16 16 15 15 15 16 16 16 17 17 17 16 15 14 12 10 9 8 7 7
3 1 1 2 7 6 6 5 5 4 0 3 3 2 3 4 6 4 2 3 1 6 8 4 8 10 4 2 0 2 3 5 12 15 9 6 7 8 11 13 14 16 17 17 17 17 17 17 16 16 17 18 20 22 23 24 25 25 24 21 20 19 18 16 15 15 15 15 15 14 15 15 16 16 16 16 16 15 13 12 10 8 8 8 9 10
4 1 3 2 3 5 5 5 4 2 1 2 1 3 4 5 8 4 2 3 4 6 8 7 11 9 3 1 1 2 3 5 11 14 11 10 10 10 13 16 17 18 18 18 17 17 17 16 16 16 17 19 20 22 22 24 24 23 21 18 17 17 16 14 13 13 14 14 14 14 15 15 16 16 16 15 15 14 14 13 12 11 11 12 13 14
1 1 3 6 7 9 9 7 2 2 1 4 4 5 6 6 7 5 4 4 6 3 4 12 14 11 13 11 7 5 6 6 9 13 15 14 13 13 15 17 18 18 18 18 17 17 17 17 17 18 18 19 20 21 22 23 23 21 19 17 16 15 15 14 13 12 13 13 13 14 14 15 16 16 16 15 15 14 14 14 14 15 15 16 16 17
3 2 5 7 12 13 11 7 2 1 5 9 9 8 8 8 8 8 8 10 5 4 11 16 9 9 19 19 12 9 8 7 9 13 17 16 14 15 16 17 18 18 18 18 18 18 18 17 18 18 18 18 20 20 21 22 22 20 18 16 15 14 14 13 13 12 12 13 13 14 14 15 15 15 15 15 14 14 14 14 14 15 16 17 17 18
4 4 4 4 9 12 9 9 7 5 9 10 11 12 10 9 11 14 19 15 7 7 18 15 5 9 17 18 14 10 7 7 11 15 16 16 16 16 18 19 20 20 20 20 20 19 19 18 18 17 17 19 20 20 21 22 20 18 16 15 14 13 13 13 12 12 12 12 13 14 14 14 15 15 15 14 14 13 13 13 14 14 15 15 16 17
3 3 2 1 7 12 9 9 8 6 8 9 11 13 11 11 15 18 20 17 13 17 22 19 14 16 18 18 18 16 13 12 16 18 17 17 16 17 19 20 21 21 21 21 20 20 19 18 17 17 18 19 19 21 21 21 19 16 15 14 13 12 12 12 12 12 12 13 13 14 14 15 15 15 14 14 14 14 14 14 14 14 14 15 16 16
3 3 1 3 5 10 5 4 3 4 7 11 14 15 13 13 15 16 18 15 13 18 22 19 17 18 21 19 17 22 23 16 15 18 18 17 17 18 20 21 22 22 22 22 21 20 19 18 17 17 18 19 20 21 21 19 18 16 14 13 12 12 12 12 12 12 12 13 14 14 15 15 15 15 15 15 15 15 15 15 15 15 15 16 16 17
3 3 1 5 3 7 3 6 6 6 7 13 18 19 16 14 12 12 13 12 13 16 16 11 9 14 17 12 9 15 17 11 13 18 18 18 19 19 21 22 22 22 22 21 21 20 18 17 16 17 18 18 20 20 20 18 17 15 13 12 12 12 12 12 12 12 13 14 14 14 15 15 15 15 15 15 16 16 16 16 16 17 17 17 17 18
4 2 0 2 2 6 3 5 6 7 9 12 13 12 11 11 11 10 8 10 14 13 8 7 11 13 9 2 4 7 7 8 13 17 18 18 19 20 21 22 21 21 20 20 20 18 17 16 16 17 18 19 20 20 19 18 16 15 13 11 11 11 11 12 12 12 13 13 14 14 15 15 16 16 16 16 17 17 17 17 17 18 18 19 19 19
3 4 2 2 2 5 6 6 6 6 8 8 3 5 6 7 11 11 9 10 13 12 9 9 11 11 6 4 7 8 7 10 14 17 18 17 17 19 20 20 19 19 19 19 18 17 16 16 16 17 18 19 20 19 18 18 16 14 13 12 11 11 11 12 12 13 13 13 14 15 15 16 16 16 17 17 17 18 18 18 19 19 19 20 20 20
5 5 2 2 2 4 5 6 6 6 7 6 6 6 7 7 9 10 9 11 12 14 14 13 13 13 12 10 12 14 14 14 15 18 18 16 16 17 17 18 18 18 18 18 18 17 16 16 17 18 19 19 19 19 18 17 15 13 12 12 11 11 11 12 12 13 13 13 14 15 15 16 17 17 18 18 18 18 18 19 19 19 20 21 21 21
7 5 2 2 2 3 2 3 2 9 11 10 11 6 1 4 4 3 7 12 13 13 14 16 18 16 14 17 20 19 17 14 14 19 20 17 16 16 16 18 19 18 18 18 17 17 17 17 17 18 19 19 19 18 17 15 14 12 12 12 11 11 12 12 12 13 13 14 15 15 16 17 17 18 18 18 19 19 19 19 19 20 20 21 21 22
8 5 2 2 2 2 2 3 4 10 15 11 5 1 2 2 5 5 3 8 9 10 12 14 15 14 13 19 21 14 9 7 8 15 19 15 13 15 17 18 18 17 17 17 17 17 17 17 18 19 19 19 18 17 16 14 13 12 11 11 11 11 11 12 13 13 14 15 15 16 17 18 18 19 19 20 20 20 20 20 20 20 21 22 22 22
5 3 5 4 2 2 1 4 4 7 9 5 3 4 4 4 7 7 1 7 6 12 17 14 10 11 12 14 12 7 4 3 5 10 14 12 12 15 16 17 16 17 17 16 17 17 17 18 19 19 19 18 17 16 14 13 12 11 11 11 11 11 12 13 13 14 15 15 16 17 18 19 20 20 21 21 22 22 22 22 22 22 22 23 24 24
2 2 4 3 3 2 3 2 3 5 9 4 4 5 4 5 7 3 5 9 6 10 17 15 10 12 14 13 10 9 4 3 6 10 13 12 13 15 15 16 16 16 16 17 17 17 17 18 18 18 18 18 17 15 14 12 12 11 11 11 11 12 12 13 14 14 15 16 17 18 19 19 20 21 22 22 23 23 24 24 23 23 23 24 24 25
3 2 2 3 6 4 4 3 4 7 9 4 4 6 6 5 3 4 6 10 6 5 13 16 14 14 15 14 10 9 6 8 9 12 14 13 13 14 14 15 15 15 16 16 16 17 17 18 18 18 18 17 16 15 14 13 12 11 11 11 12 12 13 14 14 15 16 17 17 18 19 20 21 22 23 23 24 24 25 25 25 25 25 25 25 26
1 1 3 4 5 5 6 5 6 6 8 7 7 10 10 5 3 1 5 8 6 7 12 15 15 14 14 14 13 11 15 20 18 16 16 14 14 15 14 14 15 15 16 16 16 17 17 18 19 18 17 16 15 14 14 13 12 12 12 12 13 13 14 14 15 16 17 18 18 19 20 21 22 23 23 24 25 25 25 25 26 26 26 26 26 27
2 1 2 2 3 4 5 4 5 7 9 8 8 11 11 4 1 6 7 5 6 9 10 12 14 15 16 18 20 21 23 23 21 20 19 18 18 16 15 16 16 16 16 16 17 17 18 18 19 18 17 16 15 14 13 13 12 12 12 13 14 14 15 16 16 17 17 18 19 20 20 21 22 23 23 24 25 25 25 25 26 27 27 27 27 27
6 4 2 4 4 3 1 2 4 9 6 10 13 8 7 6 7 7 5 4 7 9 9 12 15 15 17 21 23 24 24 22 21 21 20 20 20 18 17 17 16 16 17 17 17 18 18 19 18 17 17 16 15 14 13 12 13 13 13 14 15 15 16 17 17 17 18 19 19 20 21 22 22 23 24 24 25 25 25 25 25 26 27 28 28 29
6 6 3 4 4 5 3 6 5 3 5 18 16 4 7 14 17 16 10 9 12 13 13 15 17 18 18 22 23 23 22 22 22 22 21 21 21 19 18 18 17 17 17 17 17 18 18 19 18 17 16 15 14 14 13 13 13 13 13 14 15 16 17 17 18 18 19 19 20 20 21 22 22 23 23 24 25 25 25 25 26 26 26 27 28 29
9 9 4 4 5 6 6 9 6 6 6 15 17 18 20 22 25 23 20 21 23 23 21 20 22 21 19 20 22 22 21 21 21 22 21 21 20 19 18 18 17 17 17 17 18 19 19 18 17 16 16 15 14 14 13 13 14 14 14 15 16 17 18 18 19 19 19 20 21 21 22 22 22 23 23 23 24 25 25 25 26 26 26 27 28 29
8 8 2 1 2 6 11 13 12 15 17 17 21 27 29 30 30 28 28 30 31 30 28 26 26 23 18 17 19 21 21 21 20 20 20 19 19 18 18 17 17 17 18 18 19 19 19 18 17 16 15 14 14 14 14 14 14 14 15 15 17 18 19 19 20 20 20 21 21 21 22 23 23 22 22 23 23 25 25 26 27 27 26 27 27 28
2 4 3 3 4 6 8 6 7 14 20 22 26 31 32 31 31 29 28 29 30 30 30 28 26 22 18 17 19 19 19 19 18 19 19 18 18 18 17 17 17 18 18 19 19 19 19 17 16 15 14 13 13 14 14 14 15 15 15 16 17 18 19 20 20 21 21 21 22 22 22 23 23 23 23 22 23 24 25 26 27 28 28 27 27 28
2 2 1 5 6 7 9 12 18 28 31 28 27 30 29 26 25 24 23 25 26 26 26 26 24 21 20 19 18 18 17 17 17 18 18 17 17 17 16 17 17 18 19 19 19 19 18 16 15 14 13 12 12 14 15 15 15 16 17 17 18 19 20 20 21 22 22 22 22 22 22 23 24 24 24 24 24 25 25 26 27 29 28 27 27 29
2 1 3 3 6 8 10 13 20 25 24 20 20 23 24 25 25 24 24 25 25 24 24 24 22 22 21 20 18 17 17 17 17 17 16 16 16 16 16 17 17 19 19 19 19 19 17 16 15 14 13 12 12 14 15 15 15 16 18 18 19 20 20 21 22 22 22 22 22 23 23 23 24 24 25 26 26 26 26 26 28 30 30 28 27 27
1 5 5 4 6 8 8 12 17 14 12 19 27 28 26 26 26 26 28 27 26 26 25 24 23 23 21 20 18 17 17 17 17 16 17 17 16 16 16 17 18 19 19 19 19 18 16 15 14 13 12 12 13 15 15 15 15 17 18 19 20 21 21 22 23 23 23 22 23 23 24 24 24 25 26 27 28 29 28 27 26 28 31 32 31 29
3 7 8 7 10 13 18 26 28 19 15 27 38 37 34 33 32 32 33 32 29 27 25 24 24 23 21 20 18 18 18 18 17 16 17 16 16 16 17 18 19 19 18 18 18 17 15 14 13 13 12 12 13 15 15 15 16 16 18 20 21 22 23 23 23 24 23 23 23 24 25 25 26 26 27 28 29 31 32 31 29 27 26 28 31 32
Wind_Direction
56 67 46 37 255 278 276 248 191 150 108 122 100 83 100 141 255 281 281 330 17 354 299 257 265 281 272 272 238 215 217 234 240 244 245 243 242 241 243 245 245 250 251 244 244 251 257 255 250 251 256 264 273 280 288 294 299 300 297 299 304 298 292 295 295 294 294 292 292 292 293 294 294 291 290 291 292 292 293 292 293 294 294 294 294 295
64 77 38 260 239 259 277 229 156 107 79 83 96 95 73 135 241 251 250 327 13 323 273 305 304 282 262 265 240 204 205 232 233 234 239 239 240 243 245 248 249 252 253 249 247 247 248 249 248 252 258 272 289 296 300 306 309 308 309 313 315 304 299 303 301 297 296 295 294 294 294 293 292 291 291 292 294 294 295 295 297 298 298 298 298 299
53 80 274 274 229 168 40 87 132 107 83 76 91 96 77 226 271 284 282 334 0 264 271 326 313 282 266 263 236 205 205 226 230 230 236 239 242 244 245 249 251 253 253 249 247 244 245 248 247 253 261 274 288 296 298 301 305 305 307 310 310 304 300 299 297 293 293 293 291 289 289 288 288 288 288 289 290 292 293 294 296 298 298 299 300 299
75 110 287 268 169 117 59 50 91 81 71 79 89 103 200 281 349 281 304 331 340 61 275 283 280 277 280 292 252 222 218 232 238 237 241 243 244 245 247 251 252 252 252 250 248 242 241 247 248 253 261 268 275 287 296 303 306 303 301 302 300 299 298 296 295 293 292 290 288 286 285 285 285 285 285 285 287 288 289 291 293 295 296 297 296 296
98 300 339 91 139 130 74 33 51 77 44 8 115 131 179 262 220 223 286 329 332 348 303 304 309 290 303 324 281 244 229 242 247 246 247 246 244 248 250 250 250 252 256 259 256 248 245 248 251 256 262 266 273 286 297 302 302 298 298 298 297 297 296 296 295 293 292 290 288 287 286 285 285 285 285 286 287 289 289 290 292 293 294 294 293 293
63 350 3 88 76 74 97 38 37 122 109 337 239 155 154 174 234 282 310 0 25 343 330 21 359 296 310 292 262 290 312 262 256 249 249 249 247 249 250 250 251 254 258 264 263 261 260 259 261 265 268 272 277 285 291 295 296 298 300 301 300 298 297 297 295 293 290 289 288 288 287 287 287 288 288 289 292 293 292 292 293 292 292 292 292 292
51 21 54 96 87 70 81 63 27 146 114 40 247 129 111 129 158 271 298 17 57 275 309 44 98 264 305 290 261 316 318 285 278 253 252 253 250 248 247 249 253 256 260 265 267 269 273 278 280 279 282 284 286 291 296 300 301 302 303 302 301 300 300 299 297 295 292 291 290 289 288 288 288 288 289 292 293 293 292 292 292 292 292 292 292 292
194 23 35 56 73 72 69 55 175 139 100 41 246 145 91 148 181 188 116 91 182 256 320 22 96 243 288 280 288 1 314 300 301 268 259 257 251 246 244 247 255 263 270 271 270 272 282 299 302 294 310 316 314 314 311 309 307 305 305 305 304 302 302 301 299 297 295 294 294 293 292 290 290 290 291 293 292 291 291 291 291 292 293 293 293 294
285 17 21 43 60 71 89 202 181 144 80 279 208 124 140 150 151 147 104 104 3 359 312 326 33 250 268 276 334 8 322 303 292 270 263 256 245 237 235 242 250 253 252 219 151 126 123 120 338 332 352 347 334 320 309 304 303 306 308 309 308 306 304 301 299 297 296 295 294 295 295 293 293 295 295 295 295 293 293 293 293 294 294 295 295 296
186 93 172 114 88 125 231 240 178 144 58 166 145 85 70 72 72 84 91 103 43 22 259 279 16 4 272 278 321 19 272 263 264 265 258 234 201 182 182 163 143 133 125 123 123 126 129 125 49 12 4 336 314 301 299 300 303 307 310 312 312 309 306 303 301 300 299 299 297 297 297 295 296 297 297 296 295 295 297 296 296 296 296 296 297 297
241 178 215 143 132 192 191 110 94 122 116 132 125 68 56 32 26 42 53 84 60 331 255 254 329 83 291 282 247 203 215 211 207 240 251 218 164 150 146 131 124 120 119 123 125 128 126 109 71 312 287 285 289 292 296 299 302 306 308 310 310 307 304 302 302 304 305 306 306 305 304 303 302 301 299 298 297 298 300 299 299 300 299 299 299 299
348 59 256 216 198 183 129 93 50 88 113 113 102 82 74 347 4 23 353 43 78 278 257 263 316 158 235 266 247 232 249 219 181 183 212 200 160 149 143 125 123 128 132 137 140 149 159 175 211 242 265 276 283 290 294 298 300 303 305 306 305 302 300 299 301 304 306 308 308 309 308 307 307 305 304 302 302 303 302 302 302 302 301 301 300 301
344 258 299 294 206 178 133 127 14 28 77 96 89 73 64 346 3 4 321 351 204 246 260 322 334 234 230 251 256 256 258 243 229 225 218 205 171 154 148 135 140 149 150 151 156 170 187 205 234 258 272 282 288 292 295 296 297 300 302 302 301 299 299 299 300 303 305 306 306 306 306 305 305 304 305 305 305 306 306 305 305 304 304 304 303 302
338 294 311 107 211 189 140 142 203 268 83 120 153 110 96 73 31 303 278 299 266 255 273 311 311 276 275 271 244 242 253 253 241 240 242 242 232 213 170 141 144 152 154 157 166 188 212 233 258 273 280 286 291 293 293 293 295 297 298 298 298 300 301 301 302 304 306 307 306 305 303 302 302 302 303 304 304 305 306 307 307 306 306 305 304 304
80 287 255 148 217 188 142 168 169 157 105 127 170 124 131 149 158 253 235 216 255 281 295 300 281 223 253 276 228 230 260 273 258 247 248 246 232 211 160 140 142 146 149 160 184 206 227 248 264 272 280 285 287 289 289 289 292 294 295 296 298 300 301 302 304 306 307 306 304 302 300 299 299 299 300 300 302 303 303 304 304 304 304 303 303 304
123 257 258 340 332 132 157 225 127 99 86 208 165 105 142 177 148 163 194 183 190 320 299 264 244 228 229 272 272 262 260 262 264 253 236 221 202 171 152 145 138 138 156 178 200 220 239 253 262 269 275 279 282 284 285 288 291 293 294 296 299 302 304 306 307 307 307 305 303 300 299 298 298 298 299 299 299 300 300 301 301 301 302 303 304 305
52 282 287 2 4 63 63 225 77 67 174 144 106 193 224 173 116 115 203 35 87 264 272 227 253 279 307 295 300 336 307 229 326 287 208 204 195 164 149 144 140 157 183 201 216 235 248 256 264 271 275 278 280 283 286 290 293 295 299 302 305 307 308 308 309 309 308 307 306 305 304 303 302 302 302 302 302 302 302 302 302 302 302 303 304 305
138 286 296 34 193 315 49 99 39 51 120 115 196 216 206 110 85 99 205 351 45 241 266 241 246 273 297 288 318 359 336 264 310 344 174 178 166 152 145 146 161 181 203 230 244 250 254 260 266 271 276 279 282 287 290 293 296 301 305 308 310 311 311 312 312 312 312 312 313 313 313 312 312 310 309 308 307 307 307 307 308 308 307 306 305 304
124 294 298 301 177 294 22 114 352 19 54 113 174 165 117 138 184 68 143 254 306 268 278 299 280 262 227 227 279 279 245 260 279 255 190 179 164 157 153 159 181 203 229 249 253 255 256 259 264 268 273 279 283 288 292 296 300 305 309 311 313 314 314 315 315 316 316 317 318 319 320 321 320 318 316 314 313 311 310 310 312 312 310 308 306 305
114 94 286 271 225 298 15 167 235 301 33 51 100 80 39 139 174 174 144 175 208 258 280 316 316 260 224 204 210 226 228 239 243 224 210 197 178 164 167 184 213 241 254 252 249 251 252 256 261 265 270 276 282 287 291 297 302 307 311 313 314 315 316 316 316 317 317 318 320 322 324 326 326 327 326 325 323 320 317 314 312 310 308 307 307 308
83 126 249 285 309 278 237 209 198 186 146 97 121 230 319 85 132 239 205 149 145 186 228 291 293 262 238 186 194 217 224 221 218 214 204 192 178 171 216 236 262 265 256 248 244 247 250 254 260 265 271 276 282 288 294 300 306 311 315 316 317 318 317 317 317 317 318 320 323 326 328 329 331 332 334 335 334 332 328 321 315 311 308 308 309 309
137 157 206 275 292 224 233 237 199 184 169 160 176 193 186 146 117 123 281 275 116 174 194 167 276 273 247 164 196 214 218 223 216 198 186 183 181 210 245 273 278 260 244 238 239 245 248 252 258 264 271 278 284 292 299 307 312 316 319 320 320 319 317 317 318 318 321 325 326 327 328 329 331 333 335 339 341 341 338 331 324 319 314 314 316 320
149 123 174 260 245 225 254 284 186 189 159 142 182 193 155 136 132 153 235 253 153 204 179 115 264 276 254 162 199 213 213 228 216 190 179 181 198 250 274 276 259 238 233 235 239 243 246 250 257 264 272 280 289 298 306 311 315 319 322 321 318 316 315 316 316 319 323 326 327 326 327 328 331 333 334 337 342 345 345 342 338 334 333 336 342 348
131 101 203 281 290 305 331 353 21 28 99 130 248 172 145 158 149 155 184 185 179 211 165 110 254 268 281 159 210 209 199 210 198 185 182 200 235 261 267 256 237 227 229 232 236 239 244 251 257 266 277 287 297 305 310 314 319 322 323 320 315 314 314 315 318 323 326 326 327 328 330 332 333 334 333 335 339 343 346 347 346 348 350 351 350 340
184 261 105 330 324 329 343 352 343 337 40 210 243 197 164 123 100 105 148 114 277 223 173 166 255 258 286 351 34 169 182 195 191 188 199 242 247 249 249 238 226 224 227 230 236 240 245 253 262 272 285 294 301 307 313 318 321 323 321 318 315 313 313 316 322 326 326 327 329 332 335 337 337 336 335 334 333 331 332 333 332 329 325 318 311 303
188 229 145 164 284 280 290 299 283 266 229 222 229 200 199 151 137 159 145 125 249 231 162 187 248 263 301 331 135 159 183 209 209 211 231 247 242 245 243 231 222 223 229 234 238 243 248 257 267 277 287 295 302 309 315 320 322 321 320 317 315 312 313 319 324 326 326 328 332 335 337 337 337 338 337 335 330 323 316 310 303 298 294 290 288 287
122 280 205 198 214 230 248 256 212 116 238 256 248 216 204 190 173 141 105 184 212 182 197 231 241 271 285 268 250 232 208 212 231 239 244 239 238 248 241 228 223 225 232 238 239 244 251 258 269 279 288 296 305 312 317 321 321 320 318 316 314 314 315 322 327 326 326 329 332 335 335 335 335 335 335 333 330 324 314 305 299 293 290 288 286 285
84 283 242 216 230 244 260 273 294 30 261 254 254 238 210 194 176 163 201 222 157 116 259 252 220 242 268 267 259 246 225 219 235 243 244 244 250 253 239 224 222 226 233 238 241 246 253 263 274 283 293 301 309 314 317 319 318 316 315 313 314 315 316 321 325 324 325 329 331 331 331 331 331 332 333 331 327 323 316 309 303 298 295 292 289 288
124 253 246 211 250 262 271 278 274 263 258 253 251 249 230 198 183 197 223 225 168 201 254 261 213 224 260 271 269 253 226 223 244 252 257 260 258 246 228 219 223 230 235 240 244 251 258 268 278 287 296 302 308 313 314 314 313 311 310 309 311 314 314 317 321 322 326 328 327 327 327 328 330 330 330 328 325 322 317 312 308 305 301 298 294 292
154 245 232 155 279 278 267 267 262 246 263 268 253 246 237 215 204 213 231 231 217 234 253 264 268 265 267 269 271 277 276 265 265 268 264 255 245 228 219 222 229 236 241 245 250 255 260 269 278 286 295 301 306 308 309 310 309 307 307 306 308 311 312 315 319 320 323 324 322 324 325 327 329 328 327 326 324 321 319 315 313 310 306 303 299 296
173 251 174 107 298 289 287 312 292 235 254 272 267 253 236 227 223 227 237 237 233 245 254 261 271 272 268 266 272 280 279 271 261 259 250 239 232 222 222 231 237 241 246 249 250 254 260 268 276 285 293 299 302 305 306 307 307 306 305 305 307 310 310 313 317 318 317 318 318 321 323 324 326 325 324 323 322 320 319 316 314 312 309 306 303 298
165 257 1 67 324 288 353 16 326 289 272 271 272 264 243 225 220 222 228 222 216 233 248 260 262 260 264 270 267 263 262 248 235 239 237 232 228 225 231 241 246 248 249 249 249 253 260 268 277 287 293 297 300 303 305 306 306 304 303 304 307 308 310 311 313 313 312 314 316 318 320 321 322 321 321 320 320 319 318 316 315 314 311 308 305 301
149 170 102 72 288 276 323 346 315 319 310 280 265 254 235 217 210 217 233 226 214 214 224 229 233 244 258 258 227 241 232 214 227 237 240 237 233 234 242 250 254 254 253 251 251 255 262 271 281 289 293 296 299 302 304 304 304 303 302 304 305 305 306 308 308 309 310 311 313 315 317 318 318 319 318 317 317 317 316 316 315 314 312 310 307 304
139 132 156 171 230 269 293 327 330 316 293 279 251 192 195 195 199 208 226 229 213 201 209 232 245 255 262 214 222 238 223 219 241 254 253 245 240 244 251 256 259 258 255 252 253 259 267 276 285 291 293 297 300 302 302 301 301 301 299 301 302 301 302 304 304 307 309 310 312 313 315 315 315 316 315 315 316 316 315 315 314 313 312 310 308 306
152 143 163 174 194 264 304 1 342 280 244 259 295 264 217 188 186 205 235 244 225 213 224 246 256 255 257 254 250 256 255 250 255 258 253 247 249 256 263 267 267 263 258 257 259 265 273 281 288 292 295 297 299 298 298 298 297 296 294 297 299 297 299 302 303 306 308 309 311 312 312 313 313 313 314 314 315 315 315 314 313 313 311 309 308 307
148 150 162 161 185 269 330 71 261 286 293 295 302 300 184 132 139 195 264 259 238 221 220 234 249 254 263 269 267 266 264 259 254 253 251 255 263 270 275 276 274 268 264 264 266 270 278 285 290 292 294 295 295 294 293 293 291 289 289 293 294 294 298 301 303 306 308 308 310 310 310 311 312 312 313 314 314 314 314 313 312 312 310 308 307 307
142 140 160 197 207 216 252 227 250 309 314 307 308 10 129 158 154 150 259 262 235 218 211 221 245 256 259 264 264 259 252 254 264 262 260 266 277 282 281 277 273 268 265 266 268 274 282 287 289 291 292 292 293 292 291 289 285 284 287 290 292 295 300 303 305 307 309 309 310 310 311 311 312 313 314 314 314 314 313 313 313 311 309 307 306 306
152 162 167 195 241 134 149 286 308 318 298 275 237 245 236 200 168 150 286 288 238 215 211 209 232 246 247 258 251 211 200 282 285 266 265 275 284 281 275 270 267 266 265 267 271 277 282 285 287 289 290 291 292 291 289 285 282 283 287 290 294 299 301 303 305 306 308 309 309 310 310 310 312 313 314 314 314 314 313 313 313 311 310 308 306 306
113 20 128 173 263 120 129 235 238 261 266 241 203 229 205 178 175 138 326 296 261 222 213 203 213 235 242 244 214 172 169 279 266 263 270 279 280 275 268 264 263 264 265 267 272 277 280 283 286 289 290 291 291 290 288 284 281 283 287 291 295 298 299 301 303 305 307 307 307 308 309 310 311 312 313 313 313 313 313 313 312 311 309 308 307 306
103 45 124 203 239 195 155 209 232 248 254 228 191 202 178 162 133 53 325 278 254 217 206 196 205 232 242 237 203 167 193 235 252 272 277 277 277 271 265 264 264 264 266 269 272 276 279 284 287 289 291 291 290 289 286 282 282 284 289 293 295 297 300 301 302 305 306 306 307 308 309 310 310 311 312 312 312 312 312 312 312 311 309 308 307 305
135 216 199 217 241 209 194 238 269 264 253 247 224 187 162 129 62 81 261 255 212 193 200 198 213 241 247 228 201 200 232 243 253 269 273 274 276 270 265 266 265 265 268 270 272 276 281 285 288 289 291 290 288 285 282 281 284 289 292 295 297 298 300 302 303 304 305 305 307 308 309 309 310 311 311 311 310 311 311 311 310 310 309 308 306 305
172 194 196 201 239 213 199 228 276 286 269 237 198 171 156 137 245 216 229 238 196 198 209 215 232 254 255 237 225 233 248 254 258 265 269 273 274 271 269 267 264 265 267 268 272 278 283 286 289 289 289 287 283 280 279 282 287 291 293 296 297 299 300 301 302 303 304 306 307 308 309 309 309 310 310 309 309 309 310 310 309 308 308 307 306 305
172 171 197 203 190 169 171 218 260 287 265 155 138 135 163 195 243 253 252 243 227 230 238 241 253 265 260 248 244 247 254 259 260 263 266 268 269 270 269 266 265 266 267 269 275 281 285 287 288 288 286 283 280 278 279 283 287 289 293 295 296 297 299 299 302 304 305 307 308 309 309 308 308 308 308 308 308 307 309 309 308 307 308 307 306 306
186 177 201 228 185 141 166 201 204 265 183 156 154 188 225 229 256 272 278 272 266 267 265 265 274 279 266 257 256 255 256 258 259 261 264 265 267 267 265 264 264 265 268 273 279 282 285 287 286 284 281 279 278 279 280 282 285 288 291 293 293 295 297 299 302 304 305 307 307 308 307 307 307 307 307 307 307 307 308 309 308 307 307 307 306 306
201 187 195 239 209 186 222 237 248 290 239 201 220 258 265 263 271 275 275 278 278 276 275 276 283 285 276 264 258 254 255 259 259 262 264 265 266 266 264 264 265 267 271 276 279 283 286 286 283 279 277 275 276 277 278 281 283 286 290 292 291 293 296 299 301 303 305 305 306 306 306 306 306 307 307 308 307 307 308 308 307 307 307 306 305 305
215 197 192 278 244 263 273 269 270 279 275 261 262 271 275 279 283 281 278 279 281 282 281 280 284 286 278 262 253 252 256 261 262 263 263 263 263 263 262 263 264 267 272 276 280 284 284 281 277 274 273 273 273 274 277 280 282 286 288 289 290 293 296 298 300 302 303 304 305 306 306 306 306 306 307 308 308 308 309 308 307 307 307 306 306 305
244 187 215 262 278 288 288 284 278 279 283 287 288 287 287 290 291 289 285 285 288 289 285 282 283 281 269 256 253 256 260 262 263 263 262 262 261 260 260 262 265 269 274 278 281 282 279 275 272 269 269 271 270 272 276 279 282 286 287 288 291 293 295 297 299 301 303 304 306 307 306 306 306 307 307 308 308 308 308 308 308 307 307 308 307 306
35 81 253 254 255 263 274 288 295 291 290 292 291 290 293 298 300 299 297 294 294 292 288 283 278 270 261 258 259 261 263 263 264 266 265 263 262 261 263 266 268 272 277 279 280 279 274 271 268 266 268 270 268 272 277 279 283 286 287 289 291 292 294 298 300 301 304 305 306 307 307 306 307 308 309 309 309 309 309 309 307 306 306 307 307 306
50 321 277 272 279 277 275 288 296 296 297 299 295 293 298 303 303 302 302 299 295 291 288 284 276 267 263 263 263 262 264 266 268 269 267 266 266 266 267 270 272 275 278 279 277 273 269 266 264 264 267 269 269 272 276 280 283 286 288 290 292 293 295 299 301 303 305 307 306 307 307 307 308 309 310 309 310 309 308 308 308 306 306 306 306 305
358 290 298 332 311 294 295 306 309 308 304 301 301 302 304 304 304 302 301 299 296 293 289 282 274 268 264 265 266 266 268 272 272 270 268 269 271 271 271 273 275 277 278 276 271 268 265 263 262 263 267 270 271 273 277 281 284 287 290 291 292 295 298 300 302 304 306 306 306 307 307 308 309 310 310 310 311 310 308 307 306 306 307 308 309 308
275 299 314 315 299 295 302 306 306 305 295 294 299 304 305 303 302 300 299 298 296 293 288 279 272 269 268 269 270 271 273 276 274 270 270 272 272 273 274 276 277 277 276 271 266 265 264 262 262 265 269 271 272 275 279 283 286 289 291 291 293 296 299 301 303 304 305 306 306 307 308 309 310 310 311 311 311 310 309 308 306 304 304 305 306 308
Height
1544 1550 1559 1563 1566 1568 1568 1570 1568 1568 1568 1563 1561 1562 1566 1566 1564 1568 1570 1570 1572 1567 1564 1568 1567 1563 1558 1556 1557 1557 1558 1559 1557 1556 1556 1556 1556 1556 1557 1558 1558 1558 1559 1561 1561 1561 1562 1562 1562 1563 1562 1563 1563 1563 1563 1563 1563 1563 1563 1562 1562 1562 1562 1561 1561 1560 1560 1559 1559 1558 1558 1557 1557 1556 1556 1555 1555 1555 1554 1554 1553 1553 1553 1552 1551 1551
1547 1555 1567 1569 1569 1570 1569 1571 1570 1569 1568 1564 1561 1562 1567 1569 1565 1568 1570 1570 1572 1567 1564 1570 1566 1558 1554 1553 1554 1555 1556 1554 1552 1552 1552 1552 1554 1554 1555 1555 1556 1556 1557 1558 1559 1560 1560 1560 1561 1561 1561 1561 1561 1561 1561 1561 1561 1561 1561 1560 1560 1560 1560 1559 1559 1558 1557 1557 1556 1556 1555 1554 1554 1554 1552 1552 1552 1551 1551 1550 1550 1549 1549 1548 1547 1547
1555 1561 1568 1569 1570 1571 1570 1571 1570 1567 1565 1564 1565 1565 1564 1569 1568 1568 1571 1572 1572 1568 1563 1567 1563 1552 1550 1551 1551 1551 1551 1548 1547 1549 1550 1550 1551 1552 1552 1553 1554 1554 1555 1556 1557 1557 1558 1558 1558 1558 1559 1559 1559 1559 1559 1559 1559 1559 1559 1559 1559 1558 1558 1558 1557 1556 1555 1555 1555 1553 1553 1552 1551 1551 1550 1549 1549 1548 1547 1547 1547 1546 1546 1545 1544 1543
1556 1564 1568 1569 1569 1569 1568 1571 1569 1564 1564 1566 1566 1564 1564 1570 1569 1563 1567 1572 1572 1570 1567 1566 1563 1553 1548 1548 1547 1547 1546 1546 1546 1547 1548 1548 1548 1548 1550 1551 1551 1552 1552 1553 1554 1556 1556 1556 1557 1557 1557 1557 1557 1557 1557 1558 1558 1557 1557 1557 1557 1557 1556 1556 1555 1554 1554 1553 1552 1551 1550 1549 1548 1547 1547 1546 1546 1545 1544 1544 1544 1544 1543 1542 1541 1540
1559 1567 1569 1569 1570 1569 1566 1567 1566 1561 1562 1569 1568 1565 1565 1570 1570 1565 1569 1572 1570 1571 1570 1565 1556 1546 1543 1543 1542 1544 1547 1545 1546 1546 1545 1545 1545 1547 1548 1548 1549 1549 1550 1551 1552 1553 1554 1554 1555 1555 1555 1556 1555 1555 1556 1556 1556 1555 1555 1555 1555 1554 1554 1553 1552 1551 1551 1550 1549 1548 1547 1546 1545 1544 1543 1543 1542 1542 1541 1541 1541 1541 1540 1539 1538 1537
1565 1568 1568 1568 1569 1569 1566 1565 1568 1565 1562 1566 1569 1569 1570 1570 1571 1570 1571 1569 1563 1562 1567 1566 1554 1541 1539 1539 1537 1542 1547 1544 1545 1545 1543 1542 1544 1545 1545 1545 1546 1547 1547 1549 1549 1550 1552 1552 1553 1553 1553 1554 1554 1554 1554 1554 1554 1553 1553 1552 1551 1551 1550 1550 1549 1548 1547 1546 1545 1544 1543 1542 1541 1539 1539 1539 1538 1538 1538 1537 1536 1536 1535 1535 1534 1533
1568 1569 1569 1569 1567 1567 1566 1565 1571 1571 1562 1561 1569 1574 1573 1572 1572 1571 1569 1565 1560 1560 1566 1569 1561 1551 1542 1534 1536 1545 1546 1543 1544 1543 1540 1539 1541 1541 1542 1542 1542 1544 1545 1546 1547 1548 1549 1549 1550 1550 1550 1551 1551 1551 1551 1550 1550 1549 1548 1548 1547 1546 1546 1545 1544 1543 1542 1541 1541 1540 1539 1537 1536 1534 1533 1535 1535 1533 1532 1531 1530 1530 1530 1529 1529 1528
1568 1568 1568 1568 1566 1565 1564 1564 1570 1572 1563 1560 1571 1575 1572 1572 1571 1571 1568 1564 1565 1567 1568 1570 1568 1564 1552 1537 1541 1547 1541 1538 1538 1538 1536 1536 1537 1537 1538 1539 1540 1541 1542 1543 1544 1545 1546 1547 1547 1547 1547 1547 1547 1547 1547 1547 1546 1545 1545 1544 1543 1542 1542 1541 1540 1538 1537 1536 1535 1534 1533 1532 1531 1530 1528 1529 1529 1527 1526 1526 1525 1525 1524 1524 1524 1523
1569 1567 1567 1567 1565 1564 1564 1567 1570 1571 1565 1566 1575 1575 1572 1573 1571 1572 1569 1565 1573 1570 1562 1568 1572 1566 1551 1537 1543 1547 1538 1534 1533 1532 1533 1531 1532 1534 1535 1537 1538 1539 1540 1541 1543 1543 1544 1544 1544 1545 1545 1545 1545 1544 1544 1544 1543 1542 1542 1541 1540 1539 1538 1537 1536 1534 1533 1532 1531 1530 1528 1527 1526 1525 1524 1523 1522 1521 1521 1520 1519 1519 1518 1518 1518 1517
1568 1567 1568 1567 1565 1564 1566 1569 1570 1569 1568 1570 1575 1573 1573 1575 1573 1574 1569 1565 1573 1567 1557 1569 1576 1568 1549 1532 1536 1542 1535 1532 1530 1529 1530 1529 1530 1532 1533 1535 1537 1538 1539 1540 1541 1541 1541 1542 1542 1543 1543 1542 1542 1542 1541 1540 1540 1539 1539 1538 1537 1537 1535 1534 1532 1531 1530 1529 1527 1526 1525 1523 1521 1521 1519 1517 1516 1516 1515 1514 1513 1513 1512 1512 1511 1511
1568 1568 1568 1567 1566 1566 1568 1569 1570 1570 1570 1571 1574 1572 1571 1573 1573 1574 1574 1572 1569 1560 1560 1574 1581 1576 1556 1532 1528 1533 1528 1526 1526 1527 1528 1528 1529 1531 1532 1534 1535 1536 1538 1538 1538 1539 1539 1539 1540 1540 1540 1540 1539 1539 1538 1538 1537 1537 1536 1535 1534 1534 1532 1530 1529 1528 1527 1526 1524 1523 1521 1519 1518 1517 1515 1513 1512 1511 1510 1509 1508 1507 1507 1506 1506 1505
1568 1566 1566 1567 1566 1567 1568 1568 1571 1572 1571 1572 1572 1570 1566 1567 1571 1569 1569 1571 1561 1551 1563 1578 1583 1582 1562 1534 1525 1528 1527 1527 1525 1524 1526 1526 1527 1530 1531 1533 1534 1535 1535 1536 1536 1536 1537 1536 1537 1537 1537 1537 1537 1536 1536 1535 1534 1534 1532 1532 1531 1530 1529 1527 1526 1524 1523 1522 1521 1519 1518 1516 1514 1513 1511 1509 1507 1507 1506 1504 1504 1503 1502 1501 1501 1500
1565 1564 1566 1566 1565 1567 1566 1565 1568 1571 1572 1572 1570 1566 1559 1560 1564 1558 1560 1569 1563 1556 1570 1581 1580 1574 1556 1533 1525 1525 1525 1527 1526 1524 1524 1526 1526 1528 1530 1531 1532 1533 1533 1534 1534 1533 1534 1533 1533 1534 1534 1534 1534 1533 1533 1532 1531 1531 1529 1528 1528 1526 1525 1524 1523 1521 1520 1519 1517 1516 1514 1513 1511 1509 1507 1505 1504 1503 1502 1500 1499 1498 1498 1497 1496 1496
1560 1562 1565 1565 1564 1566 1565 1561 1560 1562 1566 1566 1564 1559 1553 1559 1565 1560 1567 1577 1568 1561 1575 1587 1580 1562 1542 1527 1522 1521 1520 1523 1524 1523 1523 1524 1525 1527 1528 1529 1529 1530 1531 1531 1532 1531 1530 1530 1531 1531 1531 1531 1531 1530 1530 1529 1528 1528 1526 1525 1524 1523 1522 1521 1519 1518 1517 1515 1514 1512 1511 1509 1507 1505 1504 1502 1500 1499 1498 1497 1496 1495 1494 1493 1492 1492
1558 1555 1559 1562 1562 1564 1565 1563 1561 1561 1563 1565 1569 1564 1555 1558 1559 1557 1562 1562 1558 1564 1576 1582 1570 1546 1527 1519 1518 1519 1520 1521 1520 1520 1522 1522 1523 1525 1526 1527 1527 1528 1529 1528 1528 1528 1527 1528 1528 1528 1528 1528 1528 1527 1527 1526 1525 1524 1523 1522 1521 1519 1518 1517 1516 1515 1513 1512 1510 1509 1507 1505 1503 1501 1499 1498 1497 1495 1494 1493 1492 1491 1490 1489 1488 1487
1564 1556 1560 1564 1563 1564 1564 1564 1566 1564 1562 1568 1574 1566 1557 1557 1557 1567 1581 1577 1576 1579 1574 1569 1556 1537 1525 1517 1517 1520 1517 1518 1518 1517 1520 1520 1521 1523 1523 1525 1526 1525 1526 1526 1525 1525 1524 1525 1526 1525 1526 1525 1525 1525 1524 1523 1522 1521 1520 1519 1518 1516 1515 1514 1512 1510 1509 1507 1505 1504 1502 1500 1498 1497 1495 1493 1492 1491 1490 1489 1487 1486 1485 1485 1484 1483
1561 1555 1563 1566 1563 1566 1565 1564 1567 1563 1559 1567 1567 1560 1563 1568 1563 1570 1588 1600 1600 1582 1566 1564 1550 1532 1527 1516 1513 1518 1514 1514 1518 1515 1517 1519 1518 1521 1522 1523 1524 1524 1524 1523 1522 1522 1522 1523 1523 1523 1523 1523 1522 1522 1521 1520 1519 1518 1517 1515 1514 1513 1511 1510 1508 1506 1504 1502 1500 1498 1497 1495 1494 1492 1491 1489 1488 1487 1485 1484 1483 1482 1481 1480 1480 1479
1563 1555 1562 1567 1563 1565 1567 1565 1567 1566 1564 1565 1561 1560 1567 1570 1567 1568 1573 1583 1591 1577 1565 1568 1552 1533 1531 1520 1510 1515 1513 1511 1516 1516 1516 1517 1516 1518 1520 1521 1522 1522 1521 1520 1519 1520 1520 1521 1521 1521 1520 1520 1519 1519 1518 1517 1516 1515 1513 1512 1511 1509 1507 1505 1503 1501 1499 1497 1495 1494 1492 1491 1490 1488 1487 1485 1484 1482 1481 1480 1479 1478 1477 1476 1476 1475
1571 1556 1557 1569 1566 1564 1568 1565 1563 1565 1567 1563 1560 1565 1566 1559 1561 1569 1567 1563 1569 1569 1563 1570 1569 1547 1533 1524 1512 1509 1510 1508 1511 1516 1516 1515 1516 1517 1518 1519 1519 1518 1517 1517 1517 1518 1518 1519 1518 1518 1518 1517 1517 1516 1515 1514 1513 1512 1510 1509 1507 1505 1503 1501 1499 1497 1495 1493 1492 1490 1489 1488 1486 1485 1483 1482 1480 1479 1477 1476 1475 1474 1474 1473 1472 1471
1573 1559 1553 1565 1568 1565 1566 1564 1559 1560 1567 1567 1564 1568 1568 1564 1563 1566 1570 1566 1562 1564 1560 1564 1568 1541 1517 1518 1512 1504 1508 1507 1507 1512 1514 1513 1514 1515 1515 1516 1516 1515 1514 1514 1515 1516 1516 1516 1516 1516 1515 1515 1514 1514 1513 1512 1511 1509 1508 1506 1504 1502 1500 1498 1496 1494 1492 1490 1489 1488 1486 1485 1484 1482 1481 1479 1477 1476 1474 1473 1472 1471 1470 1469 1469 1468
1573 1566 1555 1560 1568 1565 1558 1556 1554 1551 1558 1563 1563 1565 1566 1571 1574 1569 1572 1574 1563 1560 1563 1564 1554 1522 1503 1510 1508 1502 1506 1505 1505 1508 1509 1511 1511 1511 1513 1512 1512 1512 1512 1513 1513 1513 1514 1513 1513 1513 1513 1512 1512 1511 1510 1509 1508 1506 1504 1502 1499 1498 1496 1494 1493 1491 1489 1488 1486 1485 1484 1482 1481 1479 1478 1477 1475 1473 1472 1470 1469 1468 1467 1466 1465 1465
1569 1567 1560 1559 1561 1555 1548 1554 1557 1553 1555 1554 1553 1557 1557 1561 1568 1562 1563 1574 1572 1564 1562 1563 1545 1508 1493 1503 1502 1501 1503 1501 1503 1505 1506 1508 1509 1509 1510 1509 1509 1510 1509 1510 1510 1510 1511 1510 1510 1510 1510 1510 1509 1508 1507 1505 1504 1502 1500 1498 1495 1494 1492 1490 1489 1488 1486 1485 1483 1482 1481 1479 1478 1477 1476 1474 1473 1471 1470 1468 1467 1466 1465 1464 1464 1463
1567 1569 1565 1558 1552 1549 1550 1556 1559 1556 1558 1556 1553 1555 1557 1557 1557 1551 1550 1561 1572 1571 1570 1578 1559 1507 1487 1499 1499 1497 1500 1499 1501 1503 1504 1506 1506 1506 1507 1506 1507 1508 1507 1508 1507 1508 1508 1507 1508 1507 1507 1507 1506 1505 1504 1502 1500 1499 1496 1494 1492 1491 1490 1488 1487 1485 1484 1483 1481 1480 1479 1477 1476 1475 1473 1472 1471 1469 1468 1467 1466 1465 1464 1463 1463 1462
1567 1566 1562 1554 1547 1549 1555 1559 1560 1559 1558 1556 1554 1557 1558 1554 1551 1551 1553 1557 1562 1560 1561 1574 1556 1503 1484 1499 1499 1497 1501 1499 1500 1501 1502 1503 1503 1503 1504 1504 1505 1505 1504 1505 1505 1505 1505 1505 1505 1505 1504 1503 1502 1501 1500 1498 1496 1495 1493 1491 1489 1488 1487 1485 1484 1483 1481 1480 1479 1478 1476 1475 1474 1472 1471 1470 1468 1467 1466 1465 1465 1464 1463 1463 1462 1462
1561 1560 1559 1553 1545 1542 1543 1546 1549 1553 1556 1552 1551 1556 1555 1554 1558 1560 1563 1566 1559 1545 1543 1551 1531 1493 1488 1501 1498 1498 1501 1498 1499 1500 1499 1501 1501 1501 1502 1502 1502 1502 1502 1502 1502 1502 1502 1502 1502 1501 1500 1500 1499 1498 1496 1494 1493 1491 1489 1488 1486 1485 1484 1483 1481 1480 1478 1478 1476 1475 1474 1473 1471 1470 1469 1468 1466 1466 1465 1464 1464 1463 1462 1461 1461 1460
1560 1560 1558 1551 1547 1542 1534 1530 1531 1539 1549 1550 1550 1554 1552 1554 1557 1551 1554 1561 1551 1541 1543 1536 1508 1486 1489 1498 1497 1498 1501 1498 1498 1499 1497 1498 1498 1498 1499 1499 1499 1499 1499 1499 1499 1499 1499 1499 1498 1498 1497 1497 1495 1494 1493 1491 1489 1488 1486 1485 1483 1482 1481 1480 1479 1477 1476 1475 1474 1473 1472 1470 1469 1468 1467 1466 1465 1464 1463 1462 1462 1461 1460 1459 1458 1458
1564 1564 1559 1550 1547 1540 1530 1529 1537 1542 1544 1542 1542 1547 1549 1552 1553 1550 1552 1549 1539 1541 1539 1516 1498 1494 1491 1490 1493 1495 1496 1496 1496 1495 1495 1495 1495 1495 1496 1495 1496 1496 1496 1496 1496 1496 1496 1495 1495 1495 1494 1493 1492 1490 1489 1487 1486 1484 1483 1482 1481 1480 1478 1477 1476 1475 1474 1473 1472 1471 1470 1468 1467 1466 1465 1464 1463 1462 1461 1460 1460 1459 1458 1457 1456 1455
1564 1560 1558 1555 1547 1539 1535 1537 1545 1548 1543 1538 1538 1540 1543 1548 1551 1551 1544 1530 1527 1537 1520 1493 1498 1506 1490 1481 1487 1489 1490 1492 1492 1491 1491 1491 1492 1492 1492 1492 1493 1493 1493 1493 1493 1492 1493 1492 1492 1491 1490 1489 1488 1486 1485 1484 1483 1481 1480 1479 1478 1477 1476 1475 1474 1473 1472 1471 1470 1469 1467 1466 1465 1464 1463 1462 1461 1460 1459 1458 1457 1456 1455 1454 1453 1452
1563 1556 1557 1559 1548 1543 1546 1545 1545 1547 1543 1538 1537 1535 1536 1543 1547 1542 1531 1523 1526 1525 1500 1483 1495 1500 1485 1479 1481 1482 1486 1488 1487 1487 1487 1487 1488 1488 1488 1489 1489 1489 1489 1489 1489 1489 1489 1488 1488 1488 1487 1486 1485 1483 1483 1482 1480 1479 1478 1477 1476 1475 1473 1472 1472 1470 1469 1468 1467 1466 1465 1464 1463 1462 1461 1460 1459 1458 1457 1456 1455 1454 1453 1452 1450 1449
1560 1554 1560 1565 1552 1543 1546 1546 1545 1547 1542 1536 1534 1533 1533 1536 1538 1532 1523 1520 1522 1514 1497 1492 1498 1494 1482 1476 1475 1477 1482 1484 1483 1483 1483 1483 1484 1484 1485 1485 1485 1486 1486 1485 1486 1486 1485 1485 1485 1484 1484 1483 1482 1481 1480 1479 1478 1476 1475 1474 1473 1472 1471 1470 1469 1468 1467 1466 1465 1464 1463 1462 1460 1459 1458 1457 1457 1456 1455 1453 1452 1451 1450 1449 1448 1447
1558 1555 1561 1564 1552 1539 1540 1544 1544 1545 1544 1536 1529 1526 1528 1530 1530 1529 1523 1520 1521 1513 1501 1501 1506 1495 1477 1471 1475 1477 1478 1479 1480 1478 1478 1479 1480 1481 1481 1482 1482 1482 1482 1482 1482 1482 1482 1482 1482 1481 1481 1480 1478 1478 1477 1475 1474 1473 1472 1472 1470 1469 1468 1467 1466 1465 1464 1463 1462 1461 1460 1459 1458 1457 1456 1455 1454 1453 1452 1451 1450 1449 1447 1446 1445 1444
1560 1558 1558 1561 1549 1534 1539 1546 1541 1539 1540 1530 1516 1509 1512 1518 1519 1517 1513 1511 1511 1506 1501 1507 1508 1490 1470 1468 1474 1475 1473 1476 1476 1474 1474 1475 1476 1477 1477 1477 1478 1478 1478 1478 1478 1478 1478 1478 1478 1478 1477 1476 1475 1474 1473 1472 1471 1470 1469 1469 1467 1467 1466 1464 1464 1463 1462 1461 1460 1459 1458 1457 1456 1455 1454 1453 1452 1451 1450 1448 1447 1446 1445 1443 1442 1441
1563 1556 1554 1560 1547 1532 1542 1549 1539 1536 1529 1507 1492 1489 1489 1495 1501 1503 1502 1501 1500 1499 1500 1499 1489 1472 1465 1470 1472 1470 1471 1473 1471 1470 1471 1471 1472 1474 1473 1473 1474 1474 1474 1474 1474 1474 1475 1474 1474 1474 1473 1473 1472 1470 1469 1468 1468 1467 1466 1465 1465 1464 1463 1462 1461 1460 1459 1458 1457 1456 1455 1454 1453 1452 1451 1450 1449 1448 1447 1446 1444 1443 1442 1440 1439 1438
1564 1556 1556 1561 1546 1531 1541 1546 1536 1533 1515 1486 1479 1486 1483 1483 1489 1491 1491 1489 1488 1490 1488 1480 1471 1466 1467 1469 1467 1467 1468 1468 1468 1468 1468 1468 1469 1470 1469 1469 1470 1470 1470 1470 1470 1471 1471 1471 1471 1470 1469 1469 1468 1467 1466 1465 1464 1464 1463 1462 1462 1461 1460 1460 1458 1457 1457 1455 1454 1453 1452 1451 1450 1449 1449 1448 1446 1445 1444 1442 1441 1440 1439 1437 1436 1435
1559 1557 1558 1563 1553 1539 1542 1543 1527 1508 1491 1479 1483 1486 1483 1483 1485 1485 1483 1481 1482 1482 1478 1474 1469 1465 1464 1465 1465 1466 1465 1465 1466 1465 1464 1465 1466 1466 1466 1466 1466 1466 1466 1466 1467 1467 1467 1467 1467 1466 1466 1465 1464 1464 1463 1462 1462 1461 1460 1460 1459 1458 1458 1457 1456 1455 1454 1453 1452 1451 1450 1449 1448 1447 1446 1445 1443 1442 1441 1439 1438 1437 1435 1434 1433 1431
1553 1555 1555 1558 1556 1543 1538 1537 1516 1487 1474 1477 1479 1478 1480 1483 1486 1485 1479 1473 1473 1474 1474 1472 1466 1461 1462 1464 1463 1463 1463 1463 1463 1462 1461 1462 1462 1462 1463 1462 1462 1463 1463 1463 1464 1464 1464 1464 1463 1463 1463 1462 1461 1461 1460 1459 1459 1458 1457 1457 1456 1456 1455 1454 1453 1452 1451 1450 1449 1448 1447 1446 1445 1444 1443 1441 1440 1439 1438 1436 1435 1434 1432 1431 1429 1428
1548 1551 1549 1551 1551 1544 1538 1535 1519 1496 1481 1472 1469 1474 1479 1479 1480 1481 1475 1465 1463 1466 1467 1465 1462 1461 1462 1461 1459 1461 1462 1462 1461 1458 1457 1458 1458 1459 1459 1459 1460 1460 1460 1461 1461 1460 1461 1460 1460 1460 1459 1458 1458 1457 1457 1456 1456 1455 1455 1454 1453 1453 1452 1451 1450 1449 1448 1447 1446 1445 1444 1443 1442 1441 1439 1438 1437 1435 1434 1433 1432 1430 1429 1427 1426 1425
1546 1546 1545 1543 1543 1546 1547 1540 1526 1505 1479 1464 1470 1478 1477 1475 1477 1480 1475 1465 1458 1457 1458 1458 1459 1459 1458 1457 1458 1460 1460 1460 1457 1453 1453 1455 1456 1456 1457 1457 1457 1457 1457 1458 1458 1457 1458 1457 1457 1457 1456 1455 1454 1454 1453 1453 1452 1452 1452 1451 1450 1449 1448 1448 1447 1446 1445 1444 1443 1442 1441 1440 1438 1437 1436 1434 1433 1432 1430 1429 1428 1427 1425 1424 1422 1421
1547 1546 1546 1544 1542 1547 1548 1538 1529 1507 1474 1463 1473 1477 1476 1477 1476 1477 1476 1463 1451 1450 1453 1454 1455 1455 1454 1455 1456 1458 1460 1458 1452 1448 1450 1453 1453 1454 1454 1454 1454 1454 1454 1455 1454 1454 1454 1454 1453 1453 1452 1451 1451 1450 1450 1450 1449 1449 1448 1448 1447 1446 1446 1445 1444 1443 1443 1442 1440 1439 1438 1437 1435 1434 1433 1431 1430 1428 1427 1425 1424 1423 1422 1420 1418 1417
1547 1545 1547 1547 1541 1543 1543 1537 1528 1505 1476 1469 1474 1474 1476 1477 1475 1480 1479 1460 1447 1449 1450 1450 1452 1452 1451 1453 1454 1456 1456 1452 1447 1446 1448 1450 1450 1451 1451 1451 1451 1451 1451 1451 1452 1451 1451 1450 1450 1449 1448 1448 1447 1447 1447 1446 1446 1446 1445 1444 1444 1443 1443 1442 1441 1441 1440 1439 1438 1437 1435 1434 1432 1431 1430 1428 1426 1425 1424 1422 1420 1419 1418 1416 1415 1413
1549 1547 1546 1544 1540 1542 1543 1536 1522 1496 1472 1469 1474 1472 1475 1476 1476 1480 1471 1451 1445 1450 1448 1448 1451 1449 1449 1450 1450 1450 1448 1445 1444 1445 1445 1446 1447 1447 1448 1448 1448 1448 1448 1448 1448 1448 1448 1447 1446 1446 1445 1444 1444 1444 1443 1443 1443 1442 1442 1441 1441 1440 1440 1439 1438 1438 1437 1436 1435 1433 1432 1431 1429 1428 1426 1425 1423 1422 1420 1418 1417 1415 1414 1412 1411 1409
1539 1543 1544 1544 1540 1538 1537 1534 1524 1497 1468 1463 1470 1472 1474 1475 1471 1465 1454 1445 1447 1448 1446 1448 1448 1447 1447 1447 1445 1444 1443 1443 1443 1443 1443 1444 1444 1444 1445 1445 1445 1445 1445 1445 1445 1445 1444 1443 1443 1442 1442 1441 1441 1441 1440 1440 1439 1439 1439 1438 1437 1437 1436 1436 1435 1434 1434 1433 1431 1430 1429 1427 1426 1424 1423 1421 1419 1418 1417 1415 1413 1411 1410 1408 1406 1405
1515 1521 1528 1535 1531 1528 1535 1538 1523 1490 1462 1458 1466 1471 1473 1468 1457 1450 1447 1446 1447 1446 1446 1447 1445 1444 1445 1443 1441 1442 1441 1441 1442 1441 1441 1442 1441 1442 1443 1442 1442 1442 1442 1442 1442 1441 1441 1440 1439 1439 1438 1438 1438 1437 1437 1437 1436 1436 1436 1435 1434 1434 1433 1433 1432 1431 1430 1429 1428 1427 1425 1424 1423 1421 1419 1417 1416 1414 1413 1412 1410 1408 1406 1404 1402 1401
1503 1499 1503 1511 1510 1512 1520 1514 1490 1466 1458 1459 1459 1459 1461 1456 1449 1447 1447 1446 1445 1445 1445 1443 1442 1442 1442 1440 1440 1440 1439 1439 1440 1439 1439 1439 1439 1440 1439 1439 1440 1439 1438 1439 1439 1438 1437 1437 1436 1436 1435 1435 1435 1434 1434 1434 1433 1433 1433 1432 1432 1431 1430 1430 1429 1428 1427 1426 1425 1424 1422 1421 1419 1418 1416 1414 1412 1410 1409 1408 1406 1404 1403 1401 1399 1397
1489 1485 1483 1486 1488 1487 1483 1473 1462 1457 1460 1460 1455 1452 1452 1450 1448 1449 1447 1444 1443 1443 1441 1440 1439 1439 1439 1438 1437 1437 1437 1437 1437 1436 1437 1437 1436 1437 1437 1436 1436 1436 1435 1436 1435 1434 1434 1433 1432 1433 1432 1432 1431 1431 1431 1431 1430 1430 1430 1430 1429 1428 1427 1427 1426 1425 1424 1423 1421 1420 1419 1417 1416 1414 1412 1411 1408 1406 1405 1403 1402 1401 1399 1397 1395 1393
1480 1483 1481 1479 1479 1474 1463 1456 1458 1459 1456 1456 1455 1452 1450 1448 1447 1447 1445 1442 1440 1439 1438 1438 1436 1435 1436 1435 1434 1434 1434 1434 1434 1434 1434 1434 1434 1434 1433 1433 1433 1433 1433 1432 1432 1431 1431 1430 1430 1430 1429 1429 1429 1428 1428 1428 1427 1427 1427 1427 1426 1425 1424 1423 1422 1421 1421 1419 1418 1417 1415 1413 1412 1411 1409 1407 1405 1403 1401 1399 1398 1396 1395 1393 1392 1389
1481 1484 1484 1480 1477 1473 1462 1456 1458 1457 1454 1454 1454 1449 1447 1446 1444 1443 1442 1439 1437 1436 1435 1434 1433 1433 1433 1432 1431 1431 1431 1431 1431 1431 1431 1431 1431 1430 1430 1430 1430 1430 1430 1429 1429 1428 1427 1427 1427 1426 1426 1426 1426 1425 1425 1425 1424 1424 1424 1423 1423 1422 1421 1420 1419 1418 1417 1416 1414 1413 1411 1410 1408 1407 1406 1404 1402 1400 1398 1396 1394 1392 1390 1389 1387 1385
1482 1484 1483 1479 1476 1472 1464 1458 1458 1455 1452 1452 1451 1446 1445 1444 1441 1440 1440 1437 1435 1434 1432 1431 1431 1430 1429 1429 1429 1429 1428 1428 1428 1428 1428 1428 1428 1427 1428 1427 1427 1427 1427 1426 1425 1425 1424 1424 1424 1423 1423 1423 1422 1422 1422 1422 1421 1421 1420 1420 1419 1418 1417 1417 1415 1414 1413 1412 1411 1409 1408 1406 1404 1403 1401 1400 1398 1396 1394 1392 1390 1388 1386 1386 1383 1380
1486 1485 1481 1477 1474 1469 1463 1460 1458 1452 1447 1447 1448 1446 1443 1441 1439 1438 1436 1434 1433 1431 1430 1428 1428 1427 1426 1426 1426 1426 1425 1425 1425 1425 1425 1425 1425 1425 1425 1424 1424 1424 1423 1423 1422 1422 1421 1421 1420 1420 1420 1420 1419 1419 1419 1418 1418 1418 1417 1416 1416 1414 1414 1413 1411 1410 1409 1408 1407 1405 1404 1402 1400 1399 1397 1395 1393 1392 1391 1389 1387 1383 1381 1381 1380 1377
1487 1484 1479 1479 1476 1469 1463 1461 1460 1455 1448 1443 1442 1442 1441 1440 1438 1435 1433 1432 1430 1428 1427 1426 1425 1424 1424 1423 1423 1423 1423 1422 1422 1422 1422 1422 1422 1422 1422 1421 1421 1420 1420 1420 1419 1418 1418 1418 1417 1417 1417 1417 1417 1416 1416 1416 1415 1414 1413 1413 1412 1411 1410 1409 1407 1406 1405 1404 1403 1402 1400 1398 1397 1395 1393 1390 1388 1387 1385 1385 1384 1381 1377 1375 1373 1373
1488 1486 1483 1483 1478 1469 1463 1461 1461 1459 1452 1443 1439 1439 1439 1437 1435 1432 1430 1428 1427 1425 1425 1423 1422 1421 1421 1421 1421 1421 1420 1420 1420 1420 1419 1419 1419 1419 1418 1418 1418 1417 1417 1417 1415 1415 1415 1415 1414 1414 1414 1414 1413 1413 1413 1413 1412 1411 1410 1409 1408 1407 1406 1405 1404 1403 1402 1401 1399 1398 1396 1394 1392 1391 1389 1387 1385 1382 1380 1378 1378 1378 1377 1373 1370 1367